Location: Mauries
(43.6188°N, 0.3322°W)
Time: 20:12:58
(UTC+00:00)

SL-23 DEB - Pass Details

Date: 14 January 2026
Orbit: 423 x 3435 km, 51.4° (Epoch: 11 February)

Event Time Altitude Azimuth Distance (km) Brightness Sun altitude
Exits shadow 05:38:50 82° 226° (SW) 438 3.1 -20.1°
Maximum altitude 05:38:58 88° 144° (SE) 433 3.2 -20.0°
Drops below altitude 10° 05:42:08 10° 59° (ENE) 1,533 6.7 -19.5°
Sets 05:44:16 0° 59° (ENE) 2,495 7.9 -19.1°
